This demonstration page uses our WeatherBlox Daily Observations layout. Learn more.

36.17497, -115.13722

Hourly Observations for February 23, 2020

Temp ( °F °C ) Dew Point ( °F °C ) Humidity (%) Winds ( mph kmh ) Pressure ( in mb ) Visibility ( mi km ) Precip ( " mm )
12:53 am 00:53 Cloudy with Light Rain 50 10 41 5 71 71 NW 16 26 30.03 1017 10 16.0934 0.01 0.254
1:53 am 01:53 Cloudy with Light Rain 50 10 41 5 71 71 NW 13 20 30.05 1018 10 16.0934 0.001 0.001
2:53 am 02:53 Cloudy 50 10 41 5 71 71 WNW 10 17 30.04 1017 10 16.0934 0.001 0.001
3:53 am 03:53 Mostly Cloudy 50 10 40 4.4 68 68 W 9 15 30.06 1018 10 16.0934 0 0
4:53 am 04:53 Mostly Clear 50 10 40 4.4 68 68 W 14 22 30.07 1018 10 16.0934 0 0
5:53 am 05:53 Clear 50 10 39 3.9 66 66 NNW 14 22 30.09 1019 10 16.0934 0 0
6:53 am 06:53 Sunny 50 10 39 3.9 66 66 N 9 15 30.14 1021 10 16.0934 0 0
7:53 am 07:53 Sunny 53 11.7 40 4.4 61 61 NNW 12 19 30.18 1022 10 16.0934 0 0
8:53 am 08:53 Sunny 56 13.3 41 5 57 57 NNW 7 11 30.19 1023 10 16.0934 0 0
9:53 am 09:53 Sunny 58 14.4 42 5.6 56 56 NE 6 9 30.2 1023 10 16.0934 0 0
10:53 am 10:53 Sunny 58 14.4 43 6.1 58 58 ESE 8 13 30.2 1023 10 16.0934 0 0
11:53 am 11:53 Sunny 60 15.6 42 5.6 52 52 S 6 9 30.19 1022 10 16.0934 0 0
12:53 pm 12:53 Sunny 63 17.2 40 4.4 43 43 VRB 3 6 30.16 1021 10 16.0934 0 0
1:53 pm 13:53 Sunny 66 18.9 39 3.9 37 37 VRB 3 6 30.15 1021 10 16.0934 0 0
2:26 pm 14:26 Sunny 69 20.6 29 -1.7 22 22 NNW 18 30 30.03 1017 10 16.0934 0 0
2:53 pm 14:53 Sunny 69 20.6 30 -1.1 23 23 NNW 17 28 30.15 1021 10 16.0934 0 0
3:53 pm 15:53 Sunny 66 18.9 40 4.4 39 39 E 14 22 30.15 1021 10 16.0934 0 0
4:53 pm 16:53 Sunny 65 18.3 41 5 42 42 ESE 7 11 30.16 1021 10 16.0934 0 0
5:53 pm 17:53 Clear 63 17.2 40 4.4 43 43 Calm 30.16 1021 10 16.0934 0 0
6:53 pm 18:53 Clear 60 15.6 42 5.6 52 52 N 5 7 30.18 1022 10 16.0934 0 0
7:53 pm 19:53 Clear 57 13.9 42 5.6 58 58 NNE 3 6 30.18 1022 10 16.0934 0 0
8:53 pm 20:53 Clear 56 13.3 42 5.6 60 60 WNW 5 7 30.19 1022 10 16.0934 0 0
9:53 pm 21:53 Clear 54 12.2 41 5 62 62 WNW 7 11 30.2 1023 10 16.0934 0 0
10:53 pm 22:53 Clear 52 11.1 41 5 66 66 WNW 5 7 30.2 1023 10 16.0934 0 0
11:53 pm 23:53 Clear 51 10.6 41 5 69 69 W 3 6 30.2 1023 10 16.0934 0 0

Powered by AerisWeather